contact:dominique.lefevre@mio.osupytheas.fr, maurice.libes@osupytheas.fr, didier.mallarino@osupytheas.fr
Project:EMSO http://www.emso-fr.org/EMSO-France
Depth: 2436.0 m
Title:EMSO Ligure Ouest : Data MII capteur AQUADOPP
Date,Latitude,Longitude,X_East,Y_North,Z_Up,Amplitude_X,Amplitude_Y,Amplitude_Z,Batterie,SoundSpeed,Heading,Pitch,Roll,Pressure,TIS,Speed,Direction
, degrees North, degrees East, m.s-1, m.s-1,m.s-1, 1, 1, 1, Volt, m.s-1, degree, degree, degree, dbar, degree_C, m.s-1, degree
2019-12-09T00:04:03,42.805,6.029,0.048,-0.006,-0.055,99.0,110.0,98.0,13.4,1505.2,324.3,-0.7,1.9,2470.125,13.3,0.048,97.1
2019-12-09T00:07:03,42.805,6.029,0.026,0.008,-0.028,100.0,109.0,98.0,13.3,1505.3,324.2,-0.7,1.9,2470.114,13.31,0.027,72.9
2019-12-09T00:10:03,42.805,6.029,0.04,0.006,-0.007,101.0,110.0,98.0,13.4,1505.3,324.0,-0.8,1.8,2470.115,13.31,0.04,81.5
2019-12-09T00:13:03,42.805,6.029,0.053,0.003,-0.038,100.0,112.0,98.0,13.4,1505.3,327.1,-0.7,1.8,2470.128,13.32,0.053,86.8
2019-12-09T00:16:03,42.805,6.029,0.025,0.0,-0.05,100.0,111.0,98.0,13.4,1505.3,326.2,-0.7,1.8,2470.115,13.32,0.025,90.0
2019-12-09T00:19:03,42.805,6.029,0.036,0.027,-0.026,101.0,113.0,98.0,13.4,1505.3,323.5,-0.7,1.8,2470.157,13.32,0.045,53.1
2019-12-09T00:22:03,42.805,6.029,0.049,0.028,-0.047,100.0,110.0,98.0,13.4,1505.3,323.8,-0.7,1.8,2470.098,13.32,0.056,60.3
2019-12-09T00:25:03,42.805,6.029,0.059,0.008,-0.06,100.0,112.0,98.0,13.4,1505.3,325.8,-0.7,1.8,2470.131,13.32,0.059,82.3
2019-12-09T00:28:03,42.805,6.029,0.042,0.022,-0.033,100.0,109.0,99.0,13.4,1505.3,323.4,-0.8,1.8,2470.098,13.32,0.047,62.4
2019-12-09T00:31:03,42.805,6.029,0.048,-0.001,-0.06,100.0,109.0,98.0,13.4,1505.3,326.6,-0.7,1.8,2470.094,13.32,0.048,91.2
2019-12-09T00:34:03,42.805,6.029,0.044,0.027,-0.073,100.0,109.0,98.0,13.4,1505.3,324.7,-0.7,1.8,2470.115,13.32,0.051,58.5
2019-12-09T00:37:03,42.805,6.029,0.031,0.007,-0.021,100.0,109.0,98.0,13.3,1505.3,323.7,-0.8,1.8,2470.071,13.32,0.031,77.3
2019-12-09T00:40:03,42.805,6.029,0.025,0.024,-0.075,100.0,109.0,98.0,13.4,1505.3,327.4,-0.7,1.8,2470.104,13.32,0.034,46.2
2019-12-09T00:43:03,42.805,6.029,0.049,0.004,-0.053,100.0,110.0,98.0,13.4,1505.3,325.3,-0.7,1.8,2470.05,13.32,0.049,85.3
2019-12-09T00:46:03,42.805,6.029,0.039,-0.004,-0.075,99.0,108.0,98.0,13.3,1505.3,327.8,-0.7,1.8,2470.134,13.32,0.039,95.9
2019-12-09T00:49:03,42.805,6.029,0.056,0.021,-0.005,100.0,106.0,99.0,13.4,1505.3,325.8,-0.7,1.8,2470.112,13.32,0.059,69.4
2019-12-09T00:52:03,42.805,6.029,0.05,-0.001,-0.045,101.0,106.0,98.0,13.4,1505.3,327.0,-0.7,1.8,2470.116,13.32,0.05,91.1
2019-12-09T00:55:03,42.805,6.029,0.034,0.012,-0.044,98.0,107.0,99.0,13.4,1505.3,328.3,-0.7,1.8,2470.085,13.32,0.036,70.6
2019-12-09T00:58:03,42.805,6.029,0.036,0.0,-0.044,100.0,107.0,99.0,13.4,1505.3,325.9,-0.7,1.8,2470.171,13.32,0.036,90.0
2019-12-09T01:04:03,42.805,6.029,0.048,0.023,-0.037,102.0,109.0,100.0,13.4,1505.2,326.7,-0.8,1.8,2470.153,13.3,0.053,64.4
2019-12-09T01:10:03,42.805,6.029,0.058,0.0,-0.058,100.0,107.0,98.0,13.3,1505.2,325.5,-0.7,1.8,2470.135,13.29,0.057,90.0
2019-12-09T01:13:03,42.805,6.029,0.042,-0.011,-0.014,100.0,106.0,99.0,13.4,1505.2,326.7,-0.7,1.8,2470.132,13.3,0.043,104.7
2019-12-09T01:16:03,42.805,6.029,0.052,0.011,-0.051,101.0,107.0,99.0,13.4,1505.3,326.3,-0.7,1.8,2470.157,13.31,0.053,78.1
2019-12-09T01:19:03,42.805,6.029,0.028,0.016,-0.007,100.0,106.0,98.0,13.4,1505.3,325.5,-0.7,1.8,2470.137,13.31,0.032,60.3
2019-12-09T01:22:03,42.805,6.029,0.064,0.0,-0.001,100.0,108.0,98.0,13.4,1505.3,326.8,-0.7,1.8,2470.129,13.32,0.063,90.0
2019-12-09T01:25:03,42.805,6.029,0.06,0.009,0.0,100.0,106.0,99.0,13.4,1505.3,325.7,-0.7,1.8,2470.091,13.32,0.06,81.5
2019-12-09T01:28:03,42.805,6.029,0.038,0.005,0.002,100.0,107.0,99.0,13.3,1505.3,325.4,-0.7,1.9,2470.122,13.32,0.038,82.5
2019-12-09T01:31:03,42.805,6.029,0.041,0.009,-0.016,100.0,107.0,98.0,13.4,1505.3,326.0,-0.7,1.9,2470.197,13.32,0.041,77.6
2019-12-09T01:34:03,42.805,6.029,0.024,0.019,-0.015,101.0,107.0,98.0,13.3,1505.3,326.7,-0.7,1.8,2470.141,13.32,0.03,51.6
2019-12-09T01:37:03,42.805,6.029,0.031,-0.006,-0.028,101.0,107.0,98.0,13.4,1505.3,328.0,-0.7,1.8,2470.126,13.32,0.031,101.0
2019-12-09T01:40:03,42.805,6.029,0.052,0.032,-0.035,100.0,106.0,98.0,13.4,1505.3,325.7,-0.7,1.8,2470.182,13.32,0.061,58.4
2019-12-09T01:43:03,42.805,6.029,0.062,0.008,-0.01,100.0,107.0,98.0,13.4,1505.3,323.7,-0.7,1.8,2470.161,13.32,0.062,82.7
2019-12-09T01:46:03,42.805,6.029,0.039,0.023,-0.051,101.0,107.0,98.0,13.3,1505.3,324.2,-0.7,1.9,2470.093,13.32,0.045,59.5
2019-12-09T01:49:03,42.805,6.029,0.049,0.0,-0.053,100.0,109.0,98.0,13.4,1505.3,327.5,-0.7,1.8,2470.167,13.32,0.049,90.0
2019-12-09T01:52:03,42.805,6.029,0.034,0.01,-0.057,99.0,109.0,98.0,13.4,1505.3,325.7,-0.7,1.8,2470.123,13.32,0.035,73.6
2019-12-09T01:55:03,42.805,6.029,0.043,0.008,-0.06,99.0,109.0,98.0,13.4,1505.3,326.0,-0.7,1.8,2470.115,13.32,0.043,79.5
2019-12-09T01:58:03,42.805,6.029,0.058,0.0,-0.063,100.0,107.0,98.0,13.4,1505.3,326.5,-0.7,1.8,2470.116,13.32,0.057,90.0
2019-12-09T02:04:03,42.805,6.029,0.063,0.011,-0.024,100.0,106.0,98.0,13.4,1505.2,324.6,-0.8,1.8,2470.182,13.3,0.063,80.1
2019-12-09T02:07:03,42.805,6.029,0.043,0.007,-0.01,100.0,107.0,98.0,13.3,1505.3,326.5,-0.7,1.8,2470.159,13.31,0.043,80.8
2019-12-09T02:10:03,42.805,6.029,0.053,-0.009,-0.047,100.0,108.0,98.0,13.4,1505.3,327.9,-0.7,1.8,2470.174,13.31,0.053,99.6
2019-12-09T02:13:03,42.805,6.029,0.067,0.015,-0.017,99.0,105.0,99.0,13.4,1505.3,323.6,-0.7,1.9,2470.173,13.32,0.068,77.4
2019-12-09T02:16:03,42.805,6.029,0.049,0.012,-0.036,101.0,107.0,99.0,13.4,1505.3,323.7,-0.7,1.8,2470.169,13.32,0.05,76.2
2019-12-09T02:19:03,42.805,6.029,0.05,0.01,-0.028,100.0,106.0,98.0,13.4,1505.3,326.4,-0.7,1.8,2470.142,13.32,0.05,78.7
2019-12-09T02:22:03,42.805,6.029,0.03,0.02,-0.005,99.0,109.0,99.0,13.4,1505.3,326.9,-0.7,1.9,2470.172,13.32,0.036,56.3
2019-12-09T02:25:03,42.805,6.029,0.045,0.011,-0.057,99.0,109.0,98.0,13.3,1505.3,324.6,-0.7,1.9,2470.172,13.32,0.046,76.3
2019-12-09T02:28:03,42.805,6.029,0.035,-0.002,-0.105,102.0,109.0,97.0,13.4,1505.3,327.7,-0.7,1.8,2470.145,13.32,0.035,93.3
2019-12-09T02:31:03,42.805,6.029,0.04,0.014,-0.013,98.0,108.0,99.0,13.4,1505.3,327.9,-0.7,1.8,2470.145,13.32,0.042,70.7
2019-12-09T02:34:03,42.805,6.029,0.054,0.008,-0.053,100.0,105.0,99.0,13.4,1505.3,325.7,-0.7,1.8,2470.198,13.32,0.054,81.6
2019-12-09T02:37:03,42.805,6.029,0.038,0.022,-0.048,101.0,107.0,100.0,13.3,1505.3,326.1,-0.7,1.8,2470.191,13.32,0.043,59.9
2019-12-09T02:40:03,42.805,6.029,0.042,-0.016,-0.075,99.0,109.0,97.0,13.3,1505.3,325.9,-0.7,1.9,2470.22,13.32,0.044,110.9
2019-12-09T02:43:03,42.805,6.029,0.051,0.024,-0.056,100.0,108.0,98.0,13.4,1505.3,324.6,-0.7,1.8,2470.172,13.32,0.056,64.8
2019-12-09T02:46:03,42.805,6.029,0.058,-0.009,-0.032,100.0,108.0,98.0,13.4,1505.3,325.3,-0.7,1.8,2470.192,13.32,0.058,98.8
2019-12-09T02:49:03,42.805,6.029,0.035,0.011,-0.023,100.0,107.0,98.0,13.4,1505.3,324.3,-0.7,1.8,2470.161,13.32,0.036,72.6
2019-12-09T02:52:03,42.805,6.029,0.055,0.009,0.0,99.0,106.0,98.0,13.4,1505.3,324.9,-0.7,1.8,2470.191,13.32,0.055,80.7
2019-12-09T02:55:03,42.805,6.029,0.073,-0.002,-0.04,99.0,105.0,98.0,13.3,1505.3,323.1,-0.7,1.9,2470.214,13.32,0.073,91.6
2019-12-09T02:58:03,42.805,6.029,0.058,0.004,-0.047,100.0,104.0,99.0,13.4,1505.3,325.0,-0.7,1.8,2470.221,13.32,0.058,86.1
2019-12-09T03:04:03,42.805,6.029,0.061,0.006,-0.038,99.0,105.0,98.0,13.4,1505.2,325.2,-0.8,1.8,2470.231,13.3,0.061,84.4
2019-12-09T03:07:03,42.805,6.029,0.063,0.016,-0.02,99.0,104.0,99.0,13.4,1505.3,323.9,-0.7,1.8,2470.234,13.31,0.064,75.8
2019-12-09T03:10:03,42.805,6.029,0.067,0.003,0.012,101.0,103.0,99.0,13.4,1505.3,324.5,-0.7,1.9,2470.253,13.31,0.067,87.4
2019-12-09T03:13:03,42.805,6.029,0.045,0.005,-0.031,101.0,104.0,99.0,13.4,1505.3,324.5,-0.7,1.9,2470.164,13.32,0.045,83.7
2019-12-09T03:16:03,42.805,6.029,0.051,0.008,-0.032,99.0,107.0,98.0,13.4,1505.3,324.9,-0.7,1.8,2470.25,13.32,0.051,81.1
2019-12-09T03:19:03,42.805,6.029,0.074,-0.009,-0.06,100.0,104.0,98.0,13.3,1505.3,326.1,-0.7,1.8,2470.233,13.32,0.074,96.9
2019-12-09T03:22:03,42.805,6.029,0.066,0.008,-0.022,100.0,105.0,97.0,13.3,1505.3,326.4,-0.7,1.8,2470.275,13.32,0.066,83.1
2019-12-09T03:25:03,42.805,6.029,0.06,0.023,-0.025,101.0,103.0,98.0,13.3,1505.3,325.1,-0.7,1.8,2470.192,13.32,0.064,69.0
2019-12-09T03:28:03,42.805,6.029,0.052,0.022,-0.039,100.0,105.0,98.0,13.3,1505.3,327.8,-0.7,1.8,2470.227,13.32,0.056,67.1
2019-12-09T03:31:03,42.805,6.029,0.051,-0.008,-0.034,101.0,105.0,98.0,13.4,1505.3,325.0,-0.7,1.8,2470.217,13.32,0.051,98.9
2019-12-09T03:34:03,42.805,6.029,0.046,0.003,-0.026,102.0,103.0,99.0,13.4,1505.3,324.9,-0.7,1.8,2470.193,13.32,0.046,86.3
2019-12-09T03:37:03,42.805,6.029,0.058,0.001,-0.029,100.0,104.0,98.0,13.3,1505.3,324.9,-0.7,1.8,2470.183,13.32,0.058,89.0
2019-12-09T03:40:03,42.805,6.029,0.053,0.006,-0.011,100.0,105.0,98.0,13.3,1505.3,327.0,-0.7,1.8,2470.21,13.32,0.053,83.5
2019-12-09T03:43:03,42.805,6.029,0.059,0.013,-0.027,100.0,104.0,97.0,13.4,1505.3,325.0,-0.7,1.8,2470.192,13.32,0.06,77.6
2019-12-09T03:46:03,42.805,6.029,0.082,-0.008,-0.007,101.0,104.0,99.0,13.4,1505.3,326.5,-0.7,1.8,2470.227,13.32,0.082,95.6
2019-12-09T03:49:03,42.805,6.029,0.035,-0.014,-0.027,101.0,105.0,98.0,13.3,1505.3,328.4,-0.7,1.8,2470.188,13.32,0.037,111.8
2019-12-09T03:52:03,42.805,6.029,0.043,-0.009,-0.03,100.0,105.0,98.0,13.4,1505.3,328.0,-0.7,1.8,2470.203,13.32,0.043,101.8
2019-12-09T03:55:03,42.805,6.029,0.058,0.013,-0.026,100.0,104.0,98.0,13.4,1505.3,326.2,-0.7,1.8,2470.208,13.32,0.059,77.4
2019-12-09T03:58:03,42.805,6.029,0.066,-0.008,-0.032,101.0,104.0,98.0,13.3,1505.3,328.4,-0.7,1.8,2470.222,13.32,0.066,96.9
2019-12-09T04:04:03,42.805,6.029,0.053,0.017,-0.025,99.0,104.0,98.0,13.4,1505.2,326.4,-0.8,1.8,2470.253,13.3,0.055,72.2
2019-12-09T04:07:03,42.805,6.029,0.05,-0.007,-0.011,99.0,107.0,98.0,13.4,1505.3,323.8,-0.7,1.8,2470.269,13.31,0.05,98.0
2019-12-09T04:10:03,42.805,6.029,0.06,-0.009,-0.007,101.0,105.0,97.0,13.4,1505.3,328.5,-0.7,1.9,2470.259,13.31,0.06,98.5
2019-12-09T04:13:03,42.805,6.029,0.071,-0.014,-0.014,99.0,104.0,98.0,13.3,1505.3,323.4,-0.7,1.8,2470.234,13.32,0.072,101.2
2019-12-09T04:16:03,42.805,6.029,0.072,0.012,-0.021,100.0,105.0,98.0,13.4,1505.3,325.6,-0.7,1.8,2470.261,13.32,0.072,80.5
2019-12-09T04:19:03,42.805,6.029,0.033,0.017,-0.034,99.0,105.0,98.0,13.3,1505.3,326.7,-0.7,1.8,2470.246,13.32,0.037,62.7
2019-12-09T04:22:03,42.805,6.029,0.047,0.007,-0.034,100.0,104.0,98.0,13.4,1505.3,326.2,-0.7,1.8,2470.218,13.32,0.047,81.5
2019-12-09T04:25:03,42.805,6.029,0.057,0.019,-0.042,100.0,105.0,98.0,13.4,1505.3,326.0,-0.7,1.8,2470.223,13.32,0.06,71.6
2019-12-09T04:28:03,42.805,6.029,0.046,-0.008,-0.01,100.0,105.0,99.0,13.4,1505.3,326.7,-0.8,1.9,2470.22,13.32,0.046,99.9
2019-12-09T04:31:03,42.805,6.029,0.037,0.026,-0.064,101.0,105.0,98.0,13.4,1505.3,326.9,-0.7,1.8,2470.181,13.32,0.045,54.9
2019-12-09T04:34:03,42.805,6.029,0.051,0.009,-0.046,100.0,104.0,99.0,13.4,1505.3,323.2,-0.7,1.8,2470.255,13.32,0.051,80.0
2019-12-09T04:37:03,42.805,6.029,0.068,0.003,-0.033,99.0,105.0,97.0,13.4,1505.3,326.3,-0.7,1.8,2470.237,13.32,0.068,87.5
2019-12-09T04:40:03,42.805,6.029,0.052,-0.011,-0.072,100.0,105.0,98.0,13.4,1505.3,323.7,-0.7,1.8,2470.218,13.32,0.053,101.9
2019-12-09T04:43:03,42.805,6.029,0.072,-0.007,-0.03,101.0,105.0,98.0,13.4,1505.3,328.7,-0.7,1.9,2470.239,13.32,0.072,95.5
2019-12-09T04:46:03,42.805,6.029,0.056,0.008,-0.037,102.0,108.0,97.0,13.4,1505.3,326.3,-0.7,1.8,2470.251,13.32,0.056,81.9
2019-12-09T04:49:03,42.805,6.029,0.068,-0.009,-0.047,100.0,104.0,98.0,13.3,1505.3,328.1,-0.7,1.8,2470.208,13.32,0.068,97.5
2019-12-09T04:52:03,42.805,6.029,0.064,-0.004,-0.026,99.0,106.0,98.0,13.4,1505.3,326.3,-0.8,1.8,2470.232,13.32,0.064,93.6
2019-12-09T04:55:03,42.805,6.029,0.046,0.008,-0.023,99.0,104.0,98.0,13.4,1505.3,324.3,-0.7,1.8,2470.273,13.32,0.046,80.1
2019-12-09T04:58:03,42.805,6.029,0.065,-0.002,-0.024,101.0,104.0,98.0,13.3,1505.3,326.5,-0.7,1.9,2470.287,13.32,0.065,91.8
2019-12-09T05:04:03,42.805,6.029,0.06,0.025,-0.017,100.0,104.0,98.0,13.4,1505.2,326.5,-0.7,1.8,2470.269,13.3,0.064,67.4
2019-12-09T05:07:03,42.805,6.029,0.065,-0.013,-0.02,100.0,105.0,98.0,13.4,1505.3,326.4,-0.7,1.8,2470.276,13.31,0.066,101.3
2019-12-09T05:10:03,42.805,6.029,0.045,0.005,-0.008,101.0,104.0,98.0,13.4,1505.3,324.3,-0.7,1.9,2470.249,13.31,0.045,83.7
2019-12-09T05:13:03,42.805,6.029,0.082,0.022,0.026,100.0,105.0,99.0,13.3,1505.3,323.2,-0.7,1.9,2470.224,13.32,0.084,75.0
2019-12-09T05:16:03,42.805,6.029,0.045,-0.011,-0.014,100.0,106.0,99.0,13.4,1505.3,325.8,-0.7,1.8,2470.252,13.32,0.046,103.7
2019-12-09T05:19:03,42.805,6.029,0.05,0.011,-0.016,100.0,103.0,99.0,13.3,1505.3,324.8,-0.7,1.8,2470.241,13.32,0.051,77.6
2019-12-09T05:22:03,42.805,6.029,0.068,0.029,-0.022,100.0,108.0,98.0,13.3,1505.3,325.8,-0.7,1.8,2470.258,13.32,0.073,66.9
2019-12-09T05:25:03,42.805,6.029,0.054,-0.012,-0.032,101.0,106.0,97.0,13.3,1505.3,324.5,-0.7,1.8,2470.283,13.32,0.055,102.5
2019-12-09T05:28:03,42.805,6.029,0.076,0.014,-0.02,101.0,104.0,98.0,13.4,1505.3,323.7,-0.7,1.8,2470.285,13.32,0.077,79.6
2019-12-09T05:31:03,42.805,6.029,0.034,0.008,-0.05,100.0,105.0,99.0,13.4,1505.3,326.2,-0.7,1.8,2470.244,13.32,0.034,76.8
2019-12-09T05:34:03,42.805,6.029,0.067,0.007,-0.02,101.0,104.0,98.0,13.3,1505.3,326.4,-0.7,1.8,2470.273,13.32,0.067,84.0
2019-12-09T05:37:03,42.805,6.029,0.047,-0.004,-0.041,98.0,106.0,99.0,13.4,1505.3,327.6,-0.7,1.8,2470.243,13.32,0.047,94.9
2019-12-09T05:40:03,42.805,6.029,0.052,0.01,-0.004,98.0,105.0,98.0,13.3,1505.3,325.9,-0.7,1.9,2470.306,13.32,0.052,79.1
2019-12-09T05:43:03,42.805,6.029,0.05,-0.007,-0.028,101.0,104.0,97.0,13.4,1505.3,324.1,-0.7,1.8,2470.226,13.32,0.05,98.0
2019-12-09T05:46:03,42.805,6.029,0.065,0.007,-0.005,99.0,104.0,99.0,13.3,1505.3,324.7,-0.7,1.8,2470.236,13.32,0.065,83.9
2019-12-09T05:49:03,42.805,6.029,0.074,-0.01,-0.024,100.0,105.0,98.0,13.4,1505.3,326.4,-0.7,1.9,2470.276,13.32,0.074,97.7
2019-12-09T05:52:03,42.805,6.029,0.073,0.003,-0.013,99.0,104.0,98.0,13.3,1505.3,327.9,-0.7,1.8,2470.255,13.32,0.073,87.6
2019-12-09T05:55:03,42.805,6.029,0.078,-0.02,-0.039,100.0,103.0,99.0,13.4,1505.3,328.5,-0.7,1.8,2470.246,13.32,0.08,104.4
2019-12-09T05:58:03,42.805,6.029,0.061,0.0,-0.036,100.0,104.0,99.0,13.4,1505.3,324.9,-0.7,1.8,2470.266,13.32,0.06,90.0
2019-12-09T06:04:03,42.805,6.029,0.08,0.0,-0.019,100.0,105.0,98.0,13.4,1505.2,327.1,-0.7,1.8,2470.283,13.3,0.079,90.0
2019-12-09T06:07:03,42.805,6.029,0.048,-0.007,-0.062,102.0,106.0,98.0,13.4,1505.3,328.3,-0.7,1.8,2470.294,13.31,0.048,98.3
2019-12-09T06:10:03,42.805,6.029,0.042,0.012,-0.06,100.0,105.0,99.0,13.3,1505.3,323.8,-0.7,1.9,2470.27,13.31,0.043,74.1
2019-12-09T06:13:03,42.805,6.029,0.038,-0.005,-0.061,100.0,107.0,98.0,13.4,1505.3,326.7,-0.7,1.9,2470.261,13.32,0.038,97.5
2019-12-09T06:16:03,42.805,6.029,0.055,0.002,-0.018,101.0,104.0,99.0,13.4,1505.3,328.5,-0.7,1.8,2470.225,13.32,0.055,87.9
2019-12-09T06:19:03,42.805,6.029,0.055,-0.005,-0.041,100.0,106.0,98.0,13.4,1505.3,326.9,-0.7,1.9,2470.29,13.32,0.055,95.2
2019-12-09T06:22:03,42.805,6.029,0.047,0.019,-0.025,100.0,106.0,98.0,13.3,1505.3,324.6,-0.7,1.8,2470.233,13.32,0.05,68.0
2019-12-09T06:25:03,42.805,6.029,0.058,0.0,-0.059,99.0,105.0,98.0,13.4,1505.3,328.1,-0.7,1.9,2470.304,13.32,0.057,90.0
2019-12-09T06:28:03,42.805,6.029,0.06,0.002,-0.042,100.0,104.0,98.0,13.3,1505.3,323.9,-0.7,1.8,2470.234,13.32,0.06,88.1
2019-12-09T06:31:03,42.805,6.029,0.062,0.011,-0.037,101.0,105.0,98.0,13.4,1505.3,326.6,-0.7,1.8,2470.262,13.32,0.062,79.9
2019-12-09T06:34:03,42.805,6.029,0.068,-0.022,-0.043,101.0,104.0,99.0,13.4,1505.3,324.1,-0.7,1.8,2470.25,13.32,0.071,107.9
2019-12-09T06:37:03,42.805,6.029,0.073,0.004,-0.034,101.0,106.0,99.0,13.4,1505.3,326.5,-0.7,1.8,2470.241,13.32,0.073,86.9
2019-12-09T06:40:03,42.805,6.029,0.066,-0.005,-0.013,99.0,104.0,98.0,13.4,1505.3,327.2,-0.7,1.8,2470.232,13.32,0.066,94.3
2019-12-09T06:43:03,42.805,6.029,0.068,0.01,-0.041,100.0,105.0,98.0,13.4,1505.3,324.3,-0.7,1.8,2470.22,13.32,0.068,81.6
2019-12-09T06:46:03,42.805,6.029,0.06,0.006,-0.023,101.0,105.0,99.0,13.4,1505.3,327.1,-0.7,1.8,2470.243,13.32,0.06,84.3
2019-12-09T06:49:03,42.805,6.029,0.044,0.003,-0.067,100.0,106.0,98.0,13.3,1505.3,327.3,-0.6,1.8,2470.253,13.32,0.044,86.1
2019-12-09T06:52:03,42.805,6.029,0.06,-0.004,-0.047,101.0,106.0,98.0,13.4,1505.3,324.4,-0.7,1.8,2470.237,13.32,0.06,93.8
2019-12-09T06:55:03,42.805,6.029,0.072,0.008,-0.039,100.0,104.0,98.0,13.4,1505.3,324.0,-0.7,1.9,2470.207,13.32,0.072,83.7
2019-12-09T06:58:03,42.805,6.029,0.073,-0.006,-0.047,100.0,104.0,98.0,13.3,1505.3,327.4,-0.7,1.8,2470.237,13.32,0.073,94.7
2019-12-09T07:04:03,42.805,6.029,0.032,0.003,-0.039,101.0,105.0,99.0,13.4,1505.2,326.9,-0.8,1.9,2470.247,13.3,0.032,84.6
2019-12-09T07:07:03,42.805,6.029,0.063,0.009,0.0,99.0,105.0,99.0,13.4,1505.3,325.5,-0.7,1.8,2470.218,13.31,0.063,81.9
2019-12-09T07:10:03,42.805,6.029,0.058,-0.011,-0.054,99.0,104.0,99.0,13.4,1505.3,326.9,-0.7,1.9,2470.271,13.31,0.059,100.7
2019-12-09T07:13:03,42.805,6.029,0.05,0.023,-0.006,101.0,104.0,98.0,13.4,1505.3,328.6,-0.7,1.8,2470.228,13.32,0.055,65.3
2019-12-09T07:16:03,42.805,6.029,0.043,-0.007,-0.047,100.0,103.0,98.0,13.3,1505.3,325.8,-0.7,1.8,2470.182,13.32,0.043,99.2
2019-12-09T07:19:03,42.805,6.029,0.024,0.011,-0.02,101.0,103.0,98.0,13.4,1505.3,324.5,-0.7,1.8,2470.27,13.32,0.026,65.4
2019-12-09T07:22:03,42.805,6.029,0.051,0.013,-0.025,101.0,104.0,98.0,13.4,1505.3,326.6,-0.7,1.8,2470.251,13.32,0.052,75.7
2019-12-09T07:25:03,42.805,6.029,0.052,0.003,-0.035,100.0,102.0,98.0,13.4,1505.3,326.5,-0.7,1.8,2470.236,13.32,0.052,86.7
2019-12-09T07:28:03,42.805,6.029,0.07,-0.002,-0.03,100.0,103.0,98.0,13.4,1505.3,325.1,-0.7,1.9,2470.241,13.32,0.07,91.6
2019-12-09T07:31:03,42.805,6.029,0.055,-0.016,-0.047,101.0,104.0,99.0,13.4,1505.3,328.0,-0.7,1.8,2470.229,13.32,0.057,106.2
2019-12-09T07:34:03,42.805,6.029,0.069,0.0,-0.011,100.0,103.0,99.0,13.3,1505.3,326.6,-0.7,1.8,2470.21,13.32,0.068,90.0
2019-12-09T07:37:03,42.805,6.029,0.062,0.0,-0.027,100.0,104.0,99.0,13.4,1505.3,323.5,-0.7,1.9,2470.228,13.32,0.061,90.0
2019-12-09T07:40:03,42.805,6.029,0.049,0.002,-0.058,100.0,104.0,98.0,13.3,1505.3,324.2,-0.7,1.8,2470.179,13.32,0.049,87.7
2019-12-09T07:43:03,42.805,6.029,0.011,-0.004,-0.014,99.0,103.0,98.0,13.3,1505.3,323.7,-0.7,1.8,2470.229,13.32,0.011,110.0
2019-12-09T07:46:03,42.805,6.029,0.052,-0.001,-0.045,100.0,102.0,98.0,13.4,1505.3,327.3,-0.8,1.8,2470.225,13.32,0.052,91.1
2019-12-09T07:49:03,42.805,6.029,0.07,-0.018,-0.005,102.0,104.0,98.0,13.4,1505.3,325.3,-0.7,1.8,2470.203,13.32,0.072,104.4
2019-12-09T07:52:03,42.805,6.029,0.055,-0.011,-0.012,101.0,104.0,98.0,13.4,1505.3,325.6,-0.7,1.8,2470.23,13.32,0.056,101.3
2019-12-09T07:55:03,42.805,6.029,0.062,0.005,-0.036,100.0,103.0,99.0,13.4,1505.3,326.6,-0.7,1.8,2470.173,13.32,0.062,85.4
2019-12-09T07:58:03,42.805,6.029,0.048,-0.015,-0.032,101.0,103.0,99.0,13.4,1505.3,327.1,-0.7,1.9,2470.167,13.32,0.05,107.4
2019-12-09T08:04:03,42.805,6.029,0.048,-0.011,0.002,100.0,103.0,99.0,13.3,1505.2,327.6,-0.8,1.8,2470.297,13.3,0.049,102.9
2019-12-09T08:07:03,42.805,6.029,0.046,-0.021,-0.013,102.0,105.0,98.0,13.4,1505.3,326.5,-0.8,1.8,2470.219,13.31,0.05,114.5
2019-12-09T08:10:03,42.805,6.029,0.055,-0.016,-0.028,101.0,102.0,98.0,13.4,1505.3,326.7,-0.7,1.8,2470.22,13.31,0.057,106.2
2019-12-09T08:13:03,42.805,6.029,0.069,-0.005,-0.009,99.0,103.0,98.0,13.4,1505.3,324.5,-0.7,1.8,2470.236,13.32,0.069,94.1
2019-12-09T08:16:03,42.805,6.029,0.067,-0.008,-0.012,102.0,103.0,98.0,13.3,1505.3,327.9,-0.7,1.8,2470.197,13.32,0.067,96.8
2019-12-09T08:19:03,42.805,6.029,0.054,-0.018,-0.013,100.0,103.0,100.0,13.4,1505.3,327.5,-0.7,1.9,2470.221,13.32,0.056,108.4
2019-12-09T08:22:03,42.805,6.029,0.065,0.001,0.004,99.0,102.0,98.0,13.4,1505.3,326.3,-0.7,1.8,2470.195,13.32,0.065,89.1
2019-12-09T08:25:03,42.805,6.029,0.076,-0.014,-0.025,101.0,102.0,99.0,13.4,1505.3,326.6,-0.7,1.9,2470.155,13.32,0.077,100.4
2019-12-09T08:28:03,42.805,6.029,0.044,0.0,-0.026,102.0,104.0,99.0,13.4,1505.3,326.8,-0.7,1.8,2470.219,13.32,0.044,90.0
2019-12-09T08:31:03,42.805,6.029,0.044,-0.015,-0.013,100.0,103.0,98.0,13.4,1505.3,326.3,-0.7,1.8,2470.219,13.32,0.046,108.8
2019-12-09T08:34:03,42.805,6.029,0.061,-0.021,-0.06,101.0,104.0,99.0,13.4,1505.3,328.0,-0.7,1.9,2470.205,13.32,0.064,109.0
2019-12-09T08:37:03,42.805,6.029,0.059,-0.018,-0.013,100.0,103.0,98.0,13.4,1505.3,326.5,-0.7,1.8,2470.207,13.32,0.061,107.0
2019-12-09T08:40:03,42.805,6.029,0.056,-0.025,-0.034,101.0,101.0,98.0,13.4,1505.3,326.4,-0.7,1.9,2470.186,13.32,0.061,114.1
2019-12-09T08:43:03,42.805,6.029,0.062,-0.005,-0.002,100.0,102.0,99.0,13.4,1505.3,327.5,-0.7,1.8,2470.228,13.32,0.062,94.6
2019-12-09T08:46:03,42.805,6.029,0.075,-0.023,-0.017,101.0,102.0,98.0,13.3,1505.3,326.5,-0.7,1.8,2470.184,13.32,0.078,107.0
2019-12-09T08:49:03,42.805,6.029,0.079,-0.032,-0.022,99.0,102.0,97.0,13.4,1505.3,327.6,-0.7,1.8,2470.181,13.32,0.085,112.0
2019-12-09T08:52:03,42.805,6.029,0.075,-0.023,-0.033,100.0,102.0,99.0,13.3,1505.3,323.0,-0.7,1.9,2470.181,13.32,0.078,107.0
2019-12-09T08:55:03,42.805,6.029,0.037,-0.029,-0.034,101.0,103.0,98.0,13.4,1505.3,326.9,-0.7,1.8,2470.154,13.32,0.047,128.1
2019-12-09T08:58:03,42.805,6.029,0.061,-0.016,-0.039,101.0,103.0,98.0,13.4,1505.3,328.0,-0.7,1.8,2470.192,13.32,0.063,104.7
2019-12-09T09:04:03,42.805,6.029,0.045,0.005,-0.012,102.0,103.0,98.0,13.4,1505.2,324.6,-0.8,1.8,2470.206,13.3,0.045,83.7
2019-12-09T09:07:03,42.805,6.029,0.054,-0.001,-0.005,101.0,103.0,99.0,13.4,1505.3,327.9,-0.7,1.8,2470.155,13.31,0.054,91.1
2019-12-09T09:10:03,42.805,6.029,0.043,0.013,-0.019,100.0,103.0,98.0,13.4,1505.3,323.4,-0.7,1.8,2470.204,13.31,0.044,73.2
2019-12-09T09:13:03,42.805,6.029,0.06,-0.017,-0.007,101.0,103.0,98.0,13.3,1505.3,325.5,-0.7,1.8,2470.201,13.32,0.062,105.8
2019-12-09T09:16:03,42.805,6.029,0.044,-0.014,-0.034,103.0,103.0,98.0,13.4,1505.3,326.0,-0.7,1.8,2470.198,13.32,0.046,107.6
2019-12-09T09:19:03,42.805,6.029,0.075,-0.021,0.004,100.0,102.0,98.0,13.4,1505.3,326.9,-0.7,1.9,2470.185,13.32,0.077,105.6
2019-12-09T09:22:03,42.805,6.029,0.055,-0.011,-0.003,103.0,103.0,98.0,13.4,1505.3,326.3,-0.7,1.8,2470.21,13.32,0.056,101.3
2019-12-09T09:25:03,42.805,6.029,0.049,-0.002,-0.026,99.0,103.0,99.0,13.4,1505.3,326.0,-0.7,1.9,2470.14,13.32,0.049,92.3
2019-12-09T09:28:03,42.805,6.029,0.057,-0.029,-0.024,101.0,102.0,98.0,13.4,1505.3,325.2,-0.7,1.8,2470.158,13.32,0.063,117.0
2019-12-09T09:31:03,42.805,6.029,0.044,-0.01,-0.023,100.0,103.0,98.0,13.4,1505.3,327.8,-0.7,1.8,2470.19,13.32,0.045,102.8
2019-12-09T09:34:03,42.805,6.029,0.041,-0.022,-0.027,100.0,103.0,99.0,13.4,1505.3,327.5,-0.7,1.8,2470.178,13.32,0.046,118.2
2019-12-09T09:37:03,42.805,6.029,0.043,-0.012,-0.028,100.0,103.0,99.0,13.4,1505.3,325.8,-0.7,1.8,2470.134,13.32,0.044,105.6
2019-12-09T09:40:03,42.805,6.029,0.051,-0.016,-0.016,102.0,104.0,97.0,13.4,1505.3,323.2,-0.8,1.8,2470.179,13.32,0.053,107.4
2019-12-09T09:43:03,42.805,6.029,0.046,0.004,-0.012,101.0,104.0,99.0,13.3,1505.3,327.8,-0.7,1.8,2470.175,13.32,0.046,85.0
2019-12-09T09:46:03,42.805,6.029,0.032,-0.013,-0.038,100.0,105.0,98.0,13.3,1505.3,323.4,-0.7,1.8,2470.161,13.32,0.034,112.1
2019-12-09T09:49:03,42.805,6.029,0.066,-0.03,-0.03,101.0,104.0,97.0,13.4,1505.3,324.6,-0.7,1.8,2470.19,13.32,0.072,114.4
2019-12-09T09:52:03,42.805,6.029,0.07,-0.008,-0.04,100.0,103.0,99.0,13.4,1505.3,324.8,-0.7,1.8,2470.189,13.32,0.07,96.5
2019-12-09T09:55:03,42.805,6.029,0.057,-0.001,-0.014,100.0,101.0,98.0,13.4,1505.3,325.2,-0.7,1.9,2470.192,13.32,0.057,91.0
2019-12-09T09:58:03,42.805,6.029,0.048,-0.011,-0.004,100.0,103.0,97.0,13.3,1505.3,323.2,-0.7,1.8,2470.174,13.32,0.049,102.9
2019-12-09T10:04:03,42.805,6.029,0.027,-0.004,-0.05,99.0,104.0,99.0,13.4,1505.2,325.3,-0.7,1.8,2470.144,13.3,0.027,98.4
2019-12-09T10:07:03,42.805,6.029,0.025,-0.006,-0.041,100.0,102.0,99.0,13.4,1505.3,328.2,-0.7,1.8,2470.173,13.31,0.025,103.5
2019-12-09T10:10:03,42.805,6.029,0.077,-0.006,-0.012,99.0,103.0,98.0,13.4,1505.3,323.1,-0.7,1.8,2470.192,13.31,0.077,94.5
2019-12-09T10:13:03,42.805,6.029,0.075,-0.019,-0.016,101.0,104.0,97.0,13.3,1505.3,324.2,-0.7,1.8,2470.15,13.32,0.077,104.2